Clinton-Sherman, OK

9:52 PM CDT on September 20, 2017 (GMT -0500)
Clinton-Sherman

Weather History for KCSM - June, 2014

Change the Weather History Date:

Monday, June 9, 2014

  Actual Average Record
Temperature  
Mean Temperature 67 °F -  
Max Temperature 75 °F 85 °F 100 °F (2011)
Min Temperature 59 °F 62 °F 57 °F (1997)
Cooling Degree Days 2    
Growing Degree Days 17 (Base 50)    
Moisture  
Dew Point 56 °F    
Average Humidity 76    
Maximum Humidity 94    
Minimum Humidity 40    
Precipitation  
Precipitation 0.43 in - - ()
Sea Level Pressure  
Sea Level Pressure 29.82 in    
Wind  
Wind Speed 17 mph (WNW)    
Max Wind Speed 30 mph    
Max Gust Speed 43 mph    
Visibility 9 miles    
Events Rain , Thunderstorm    
Averages and records for this station are not official NWS values.
T = Trace of Precipitation, MM = Missing Value Source: NWS Daily Summary

Daily Weather History Graph

Daily Weather History Graph

Search for Another Location

Airport or City:

Trip Planner

Search our weather history database for the weather conditions in past years. The results will help you decide how hot, cold, wet, or windy it might be!

Date:

Astronomy

Jun. 09, 2014 Rise Set
Actual Time 6:21 AM CDT 8:50 PM CDT
Civil Twilight 5:51 AM CDT 9:20 PM CDT
Nautical Twilight 5:15 AM CDT 9:57 PM CDT
Astronomical Twilight 4:34 AM CDT 10:37 PM CDT
Moon 5:20 PM CDT (6/9) 3:41 AM CDT (6/9)
Length of Visible Light 15h 28m
Length of Day
14h 29m
Waxing Gibbous, 85% of the Moon is Illuminated
Jun 9
Waxing Gibbous
Jun 12
Full
Jun 19
Last Quarter
Jun 27
New
Jul 5
First Quarter

Hourly Weather History & Observations

Time (CDT) Temp. Dew Point Humidity Pressure Visibility Wind Dir Wind Speed Gust Speed Precip Events Conditions
12:25 AM 68.0 °F 64.4 °F 88% 29.92 in 10.0 mi Variable 6.9 mph - 0.00 in Rain , Thunderstorm Light Rain
12:33 AM 62.6 °F 59.0 °F 88% 29.98 in 2.0 mi WNW 29.9 mph 42.6 mph 0.14 in Rain , Thunderstorm Heavy Thunderstorms and Rain
12:35 AM 60.8 °F 57.2 °F 88% 29.98 in 1.5 mi West 28.8 mph 42.6 mph 0.20 in Rain , Thunderstorm Heavy Thunderstorms and Rain
12:45 AM 59.0 °F 57.2 °F 94% 29.98 in 2.0 mi West 13.8 mph 33.4 mph 0.31 in Rain , Thunderstorm Heavy Thunderstorms and Rain
12:47 AM 59.0 °F 57.2 °F 94% 29.98 in 3.0 mi West 13.8 mph 27.6 mph 0.32 in Rain , Thunderstorm Thunderstorms and Rain
12:53 AM 60.1 °F 57.0 °F 90% 29.93 in 7.0 mi West 11.5 mph 19.6 mph 0.32 in Rain , Thunderstorm Light Thunderstorms and Rain
1:03 AM 60.8 °F 57.2 °F 88% 29.95 in 8.0 mi West 9.2 mph - 0.03 in Rain , Thunderstorm Thunderstorms and Rain
1:21 AM 60.8 °F 57.2 °F 88% 29.92 in 10.0 mi WNW 10.4 mph - 0.04 in Rain Light Rain
1:53 AM 60.1 °F 57.0 °F 90% 29.82 in 10.0 mi NNW 8.1 mph - 0.06 in Rain Light Rain
2:03 AM 59.0 °F 57.2 °F 94% 29.85 in 10.0 mi North 9.2 mph - 0.02 in Rain , Thunderstorm Light Thunderstorms and Rain
2:18 AM 60.8 °F 57.2 °F 88% 29.83 in 10.0 mi NE 8.1 mph - 0.03 in Rain Light Rain
2:53 AM 60.1 °F 57.0 °F 90% 29.77 in 10.0 mi Calm Calm - 0.04 in   Partly Cloudy
3:53 AM 60.1 °F 57.0 °F 90% 29.83 in 10.0 mi WNW 15.0 mph 21.9 mph 0.00 in Rain Light Rain
4:23 AM 60.8 °F 57.2 °F 88% 29.90 in 10.0 mi West 12.7 mph - 0.00 in Thunderstorm Mostly Cloudy
4:38 AM 60.8 °F 57.2 °F 88% 29.89 in 10.0 mi West 10.4 mph - 0.00 in Rain Light Rain
4:53 AM 61.0 °F 57.0 °F 87% 29.80 in 10.0 mi South 5.8 mph - 0.00 in Rain Light Rain
5:53 AM 60.1 °F 57.9 °F 93% 29.78 in 10.0 mi West 12.7 mph - 0.01 in   Scattered Clouds
6:53 AM 60.1 °F 57.0 °F 90% 29.78 in 10.0 mi West 11.5 mph - N/A   Clear
7:53 AM 61.0 °F 57.0 °F 87% 29.78 in 10.0 mi WNW 18.4 mph 26.5 mph N/A   Clear
8:53 AM 64.0 °F 54.0 °F 70% 29.77 in 10.0 mi NW 21.9 mph 33.4 mph N/A   Clear
10:53 AM 70.0 °F 50.0 °F 49% 29.77 in 10.0 mi NW 23.0 mph 33.4 mph N/A   Clear
11:53 AM 72.0 °F 48.0 °F 43% 29.78 in 10.0 mi NW 24.2 mph 35.7 mph N/A   Clear
12:53 PM 73.0 °F 48.9 °F 42% 29.78 in 10.0 mi NW 19.6 mph 33.4 mph N/A   Scattered Clouds
1:53 PM 75.9 °F 50.0 °F 40% 29.75 in 10.0 mi West 24.2 mph 35.7 mph N/A   Mostly Cloudy
2:53 PM 73.9 °F 48.9 °F 41% 29.74 in 10.0 mi West 29.9 mph 38.0 mph N/A   Scattered Clouds
3:53 PM 72.0 °F 48.9 °F 44% 29.73 in 10.0 mi West 26.5 mph 34.5 mph N/A   Mostly Cloudy
4:53 PM 71.1 °F 50.0 °F 47% 29.70 in 10.0 mi West 27.6 mph 42.6 mph N/A   Scattered Clouds
5:53 PM 68.0 °F 53.1 °F 59% 29.71 in 10.0 mi West 29.9 mph 36.8 mph N/A   Mostly Cloudy
6:53 PM 63.0 °F 57.9 °F 84% 29.71 in 10.0 mi West 17.3 mph 26.5 mph 0.00 in Rain Light Rain
7:20 PM 66.2 °F 59.0 °F 78% 29.76 in 10.0 mi NW 23.0 mph 34.5 mph 0.00 in   Overcast
7:53 PM 66.9 °F 57.0 °F 70% 29.74 in 10.0 mi NW 24.2 mph 31.1 mph 0.00 in   Mostly Cloudy
8:53 PM 64.9 °F 55.9 °F 73% 29.75 in 10.0 mi NW 26.5 mph 36.8 mph N/A   Mostly Cloudy
9:53 PM 64.0 °F 55.9 °F 75% 29.76 in 10.0 mi NW 25.3 mph 31.1 mph N/A   Mostly Cloudy
10:05 PM 64.4 °F 55.4 °F 73% 29.81 in 10.0 mi NW 25.3 mph 36.8 mph N/A   Mostly Cloudy
10:13 PM 62.6 °F 55.4 °F 77% 29.81 in 10.0 mi NW 21.9 mph 32.2 mph N/A   Scattered Clouds
10:53 PM 63.0 °F 55.0 °F 75% 29.77 in 10.0 mi NW 27.6 mph 38.0 mph N/A   Scattered Clouds
11:32 PM 62.6 °F 55.4 °F 77% 29.83 in 10.0 mi NW 23.0 mph 36.8 mph 0.00 in   Overcast
11:53 PM 62.1 °F 55.9 °F 80% 29.78 in 10.0 mi NW 24.2 mph 39.1 mph 0.00 in Rain Light Rain